Time,TemperatureF,DewpointF,PressureIn,WindDirection,WindDirectionDegrees,WindSpeedMPH,WindSpeedGustMPH,Humidity,HourlyPrecipIn,Conditions,Clouds,dailyrainin,SoftwareType,DateUTC
2013-01-29 00:00:00,27.2,15.1,29.93,West,259,8.0,8.0,60,0.00,,,0.02,Wunderground v.1.15,2013-01-29 07:00:00,
2013-01-29 00:09:00,27.1,15.4,29.92,West,261,7.0,9.0,61,0.00,,,0.00,Wunderground v.1.15,2013-01-29 07:09:00,
2013-01-29 00:15:00,27.0,15.3,29.92,West,265,6.0,9.0,61,0.00,,,0.00,Wunderground v.1.15,2013-01-29 07:15:00,
2013-01-29 00:25:00,26.7,15.4,29.92,West,274,6.0,6.0,62,0.00,,,0.00,Wunderground v.1.15,2013-01-29 07:25:00,
2013-01-29 00:30:00,26.6,16.1,29.92,West,271,5.0,5.0,64,0.00,,,0.00,Wunderground v.1.15,2013-01-29 07:30:00,
2013-01-29 00:35:00,26.5,15.6,29.92,West,276,6.0,10.0,63,0.00,,,0.00,Wunderground v.1.15,2013-01-29 07:35:00,
2013-01-29 00:45:00,26.6,15.7,29.92,West,273,6.0,10.0,63,0.00,,,0.00,Wunderground v.1.15,2013-01-29 07:45:00,
2013-01-29 00:50:00,26.5,15.6,29.92,WSW,249,7.0,10.0,63,0.00,,,0.00,Wunderground v.1.15,2013-01-29 07:50:00,
2013-01-29 00:55:00,26.5,15.6,29.92,West,259,8.0,10.0,63,0.00,,,0.00,Wunderground v.1.15,2013-01-29 07:55:00,
2013-01-29 01:00:00,26.4,15.5,29.92,WNW,286,8.0,8.0,63,0.00,,,0.00,Wunderground v.1.15,2013-01-29 08:00:00,
2013-01-29 01:05:00,26.5,16.0,29.93,West,267,8.0,8.0,64,0.00,,,0.00,Wunderground v.1.15,2013-01-29 08:05:00,
2013-01-29 01:15:00,26.6,16.1,29.92,West,276,6.0,7.0,64,0.00,,,0.00,Wunderground v.1.15,2013-01-29 08:15:00,
2013-01-29 01:20:00,26.7,16.5,29.92,WSW,248,6.0,6.0,65,0.00,,,0.00,Wunderground v.1.15,2013-01-29 08:20:00,
2013-01-29 01:30:00,26.8,16.6,29.92,West,266,5.0,9.0,65,0.00,,,0.00,Wunderground v.1.15,2013-01-29 08:30:00,
2013-01-29 01:34:00,26.8,16.6,29.92,West,271,5.0,9.0,65,0.00,,,0.00,Wunderground v.1.15,2013-01-29 08:34:00,
2013-01-29 01:39:00,26.8,16.2,29.92,WSW,248,6.0,9.0,64,0.00,,,0.00,Wunderground v.1.15,2013-01-29 08:39:00,
2013-01-29 01:44:00,26.9,16.0,29.92,WSW,245,7.0,9.0,63,0.00,,,0.00,Wunderground v.1.15,2013-01-29 08:44:00,
2013-01-29 01:49:00,26.9,16.0,29.92,WSW,240,6.0,7.0,63,0.00,,,0.00,Wunderground v.1.15,2013-01-29 08:49:00,
2013-01-29 02:00:00,26.8,16.6,29.92,West,267,6.0,7.0,65,0.00,,,0.00,Wunderground v.1.15,2013-01-29 09:00:00,
2013-01-29 02:05:00,26.7,16.1,29.95,West,265,6.0,7.0,64,0.00,,,0.00,Wunderground v.1.15,2013-01-29 09:05:00,
2013-01-29 02:15:00,26.6,16.4,29.95,WSW,256,4.0,6.0,65,0.00,,,0.00,Wunderground v.1.15,2013-01-29 09:15:00,
2013-01-29 02:20:00,26.6,16.1,29.95,WSW,254,4.0,4.0,64,0.00,,,0.00,Wunderground v.1.15,2013-01-29 09:20:00,
2013-01-29 02:25:00,26.6,16.1,29.95,SW,236,4.0,4.0,64,0.00,,,0.00,Wunderground v.1.15,2013-01-29 09:25:00,
2013-01-29 02:35:00,26.6,16.4,29.96,West,276,3.0,3.0,65,0.00,,,0.00,Wunderground v.1.15,2013-01-29 09:35:00,
2013-01-29 02:40:00,26.6,16.4,29.96,West,274,3.0,3.0,65,0.00,,,0.00,Wunderground v.1.15,2013-01-29 09:40:00,
2013-01-29 02:45:00,26.6,16.4,29.96,West,273,2.0,3.0,65,0.00,,,0.00,Wunderground v.1.15,2013-01-29 09:45:00,
2013-01-29 02:50:00,26.5,16.0,29.96,WSW,244,3.0,5.0,64,0.00,,,0.00,Wunderground v.1.15,2013-01-29 09:50:00,
2013-01-29 02:55:00,26.4,16.6,29.96,West,267,4.0,5.0,66,0.00,,,0.00,Wunderground v.1.15,2013-01-29 09:55:00,
2013-01-29 03:05:00,26.0,16.2,29.97,West,267,2.0,4.0,66,0.00,,,0.00,Wunderground v.1.15,2013-01-29 10:05:00,
2013-01-29 03:14:00,25.8,16.3,29.97,West,267,3.0,4.0,67,0.00,,,0.00,Wunderground v.1.15,2013-01-29 10:14:00,
2013-01-29 03:19:00,25.6,16.2,29.97,West,267,4.0,4.0,67,0.00,,,0.00,Wunderground v.1.15,2013-01-29 10:19:00,
2013-01-29 03:24:00,25.3,16.2,29.98,West,267,3.0,4.0,68,0.00,,,0.00,Wunderground v.1.15,2013-01-29 10:24:00,
2013-01-29 03:29:00,25.1,16.4,29.98,West,267,3.0,4.0,69,0.00,,,0.00,Wunderground v.1.15,2013-01-29 10:29:00,
2013-01-29 03:35:00,24.8,16.4,29.97,West,267,3.0,4.0,70,0.00,,,0.00,Wunderground v.1.15,2013-01-29 10:35:00,
2013-01-29 03:40:00,24.5,16.1,29.97,West,267,3.0,4.0,70,0.00,,,0.00,Wunderground v.1.15,2013-01-29 10:40:00,
2013-01-29 03:45:00,24.3,16.2,29.97,West,267,3.0,4.0,71,0.00,,,0.00,Wunderground v.1.15,2013-01-29 10:45:00,
2013-01-29 03:50:00,24.3,16.2,29.97,West,267,3.0,3.0,71,0.00,,,0.00,Wunderground v.1.15,2013-01-29 10:50:00,
2013-01-29 03:55:00,24.2,16.1,29.97,West,273,3.0,3.0,71,0.00,,,0.00,Wunderground v.1.15,2013-01-29 10:55:00,
2013-01-29 04:00:00,24.0,15.6,29.96,West,279,3.0,3.0,70,0.00,,,0.00,Wunderground v.1.15,2013-01-29 11:00:00,
2013-01-29 04:05:00,23.9,15.5,29.98,WNW,283,3.0,3.0,70,0.00,,,0.00,Wunderground v.1.15,2013-01-29 11:05:00,
2013-01-29 04:15:00,23.6,15.2,29.97,WNW,286,3.0,4.0,70,0.00,,,0.00,Wunderground v.1.15,2013-01-29 11:15:00,
2013-01-29 04:25:00,23.2,14.9,29.98,WNW,286,3.0,4.0,70,0.00,,,0.00,Wunderground v.1.15,2013-01-29 11:25:00,
2013-01-29 04:30:00,22.9,14.9,29.98,WNW,286,2.0,2.0,71,0.00,,,0.00,Wunderground v.1.15,2013-01-29 11:30:00,
2013-01-29 04:39:00,22.5,14.5,29.98,WNW,286,2.0,2.0,71,0.00,,,0.00,Wunderground v.1.15,2013-01-29 11:39:00,
2013-01-29 04:44:00,22.3,14.3,29.98,WNW,286,2.0,2.0,71,0.00,,,0.00,Wunderground v.1.15,2013-01-29 11:44:00,
2013-01-29 04:49:00,22.1,14.1,29.98,WNW,286,2.0,2.0,71,0.00,,,0.00,Wunderground v.1.15,2013-01-29 11:49:00,
2013-01-29 04:54:00,21.8,14.2,29.98,WNW,286,2.0,2.0,72,0.00,,,0.00,Wunderground v.1.15,2013-01-29 11:54:00,
2013-01-29 04:59:00,21.6,14.0,29.98,WNW,286,1.0,1.0,72,0.00,,,0.00,Wunderground v.1.15,2013-01-29 11:59:00,
2013-01-29 05:05:00,21.3,13.7,29.98,WNW,286,0.0,1.0,72,0.00,,,0.00,Wunderground v.1.15,2013-01-29 12:05:00,
2013-01-29 05:10:00,21.0,13.7,29.98,WNW,286,0.0,0.0,73,0.00,,,0.00,Wunderground v.1.15,2013-01-29 12:10:00,
2013-01-29 05:15:00,20.7,13.4,29.98,WNW,286,0.0,0.0,73,0.00,,,0.00,Wunderground v.1.15,2013-01-29 12:15:00,
2013-01-29 05:20:00,20.5,13.5,29.98,WNW,286,0.0,0.0,74,0.00,,,0.00,Wunderground v.1.15,2013-01-29 12:20:00,
2013-01-29 05:25:00,20.4,13.4,29.98,WNW,286,0.0,0.0,74,0.00,,,0.00,Wunderground v.1.15,2013-01-29 12:25:00,
2013-01-29 05:30:00,20.3,13.3,29.98,WNW,286,0.0,0.0,74,0.00,,,0.00,Wunderground v.1.15,2013-01-29 12:30:00,
2013-01-29 05:39:00,20.3,13.6,29.97,WNW,286,0.0,0.0,75,0.00,,,0.00,Wunderground v.1.15,2013-01-29 12:39:00,
2013-01-29 05:44:00,20.2,13.5,29.97,WNW,286,0.0,0.0,75,0.00,,,0.00,Wunderground v.1.15,2013-01-29 12:44:00,
2013-01-29 05:49:00,20.1,13.7,29.97,WNW,286,0.0,0.0,76,0.00,,,0.00,Wunderground v.1.15,2013-01-29 12:49:00,
2013-01-29 05:59:00,19.4,13.1,29.97,WNW,287,0.0,2.0,76,0.00,,,0.00,Wunderground v.1.15,2013-01-29 12:59:00,
2013-01-29 06:05:00,19.0,12.7,29.99,WNW,287,1.0,3.0,76,0.00,,,0.00,Wunderground v.1.15,2013-01-29 13:05:00,
2013-01-29 06:14:00,18.6,12.9,29.99,WNW,287,3.0,3.0,78,0.00,,,0.00,Wunderground v.1.15,2013-01-29 13:14:00,
2013-01-29 06:20:00,18.3,12.3,30.00,North,350,3.0,3.0,77,0.00,,,0.00,Wunderground v.1.15,2013-01-29 13:20:00,
2013-01-29 06:25:00,17.8,12.1,30.00,North,350,3.0,3.0,78,0.00,,,0.00,Wunderground v.1.15,2013-01-29 13:25:00,
2013-01-29 06:30:00,17.5,11.8,30.00,North,350,2.0,2.0,78,0.00,,,0.00,Wunderground v.1.15,2013-01-29 13:30:00,
2013-01-29 06:35:00,17.3,11.6,30.01,North,350,2.0,2.0,78,0.00,,,0.00,Wunderground v.1.15,2013-01-29 13:35:00,
2013-01-29 06:44:00,17.2,11.8,30.01,North,350,1.0,2.0,79,0.00,,,0.00,Wunderground v.1.15,2013-01-29 13:44:00,
2013-01-29 06:49:00,17.1,11.7,30.01,North,350,0.0,0.0,79,0.00,,,0.00,Wunderground v.1.15,2013-01-29 13:49:00,
2013-01-29 06:54:00,16.9,11.5,30.01,North,350,0.0,0.0,79,0.00,,,0.00,Wunderground v.1.15,2013-01-29 13:54:00,
2013-01-29 06:59:00,16.6,11.2,30.02,North,350,0.0,0.0,79,0.00,,,0.00,Wunderground v.1.15,2013-01-29 13:59:00,
2013-01-29 07:05:00,16.4,11.0,30.02,North,350,0.0,0.0,79,0.00,,,0.00,Wunderground v.1.15,2013-01-29 14:05:00,
2013-01-29 07:14:00,16.4,11.3,30.02,North,350,0.0,2.0,80,0.00,,,0.00,Wunderground v.1.15,2013-01-29 14:14:00,
2013-01-29 07:19:00,16.7,11.6,30.02,North,350,1.0,1.0,80,0.00,,,0.00,Wunderground v.1.15,2013-01-29 14:19:00,
2013-01-29 07:24:00,16.8,11.4,30.02,North,350,1.0,2.0,79,0.00,,,0.00,Wunderground v.1.15,2013-01-29 14:24:00,
2013-01-29 07:30:00,16.7,11.3,30.02,North,350,2.0,2.0,79,0.00,,,0.00,Wunderground v.1.15,2013-01-29 14:30:00,
2013-01-29 07:35:00,16.7,11.0,30.02,North,350,2.0,2.0,78,0.00,,,0.00,Wunderground v.1.15,2013-01-29 14:35:00,
2013-01-29 07:40:00,16.6,10.9,30.02,North,350,2.0,2.0,78,0.00,,,0.00,Wunderground v.1.15,2013-01-29 14:40:00,
2013-01-29 07:50:00,16.7,11.3,30.02,North,350,2.0,2.0,79,0.00,,,0.00,Wunderground v.1.15,2013-01-29 14:50:00,
2013-01-29 07:59:00,17.3,11.9,30.02,WNW,284,3.0,3.0,79,0.00,,,0.00,Wunderground v.1.15,2013-01-29 14:59:00,
2013-01-29 08:05:00,17.7,12.3,30.02,WNW,283,4.0,4.0,79,0.00,,,0.00,Wunderground v.1.15,2013-01-29 15:05:00,
2013-01-29 08:14:00,18.2,12.8,30.02,WNW,285,3.0,4.0,79,0.00,,,0.00,Wunderground v.1.15,2013-01-29 15:14:00,
2013-01-29 08:19:00,18.5,13.1,30.02,WNW,285,3.0,3.0,79,0.00,,,0.00,Wunderground v.1.15,2013-01-29 15:19:00,
2013-01-29 08:24:00,18.7,13.3,30.03,WNW,286,3.0,3.0,79,0.00,,,0.00,Wunderground v.1.15,2013-01-29 15:24:00,
2013-01-29 08:29:00,18.9,13.2,30.03,WNW,284,2.0,2.0,78,0.00,,,0.00,Wunderground v.1.15,2013-01-29 15:29:00,
2013-01-29 08:34:00,19.2,13.5,30.03,WNW,285,1.0,2.0,78,0.00,,,0.00,Wunderground v.1.15,2013-01-29 15:34:00,
2013-01-29 08:39:00,19.6,13.9,30.01,WNW,285,1.0,1.0,78,0.00,,,0.00,Wunderground v.1.15,2013-01-29 15:39:00,
2013-01-29 08:50:00,20.2,14.1,30.01,South,185,1.0,1.0,77,0.00,,,0.00,Wunderground v.1.15,2013-01-29 15:50:00,
2013-01-29 08:55:00,20.6,14.2,30.02,NNW,329,1.0,1.0,76,0.00,,,0.00,Wunderground v.1.15,2013-01-29 15:55:00,
2013-01-29 09:05:00,21.5,15.1,30.02,NNW,329,0.0,1.0,76,0.00,,,0.00,Wunderground v.1.15,2013-01-29 16:05:00,
2013-01-29 09:15:00,22.5,16.1,30.02,NW,326,0.0,1.0,76,0.00,,,0.00,Wunderground v.1.15,2013-01-29 16:15:00,
2013-01-29 09:24:00,23.4,16.0,30.02,NNW,348,2.0,2.0,73,0.00,,,0.00,Wunderground v.1.15,2013-01-29 16:24:00,
2013-01-29 09:29:00,23.8,15.8,30.00,North,355,2.0,4.0,71,0.00,,,0.00,Wunderground v.1.15,2013-01-29 16:29:00,
2013-01-29 09:39:00,24.5,16.1,30.01,NNW,333,3.0,4.0,70,0.00,,,0.00,Wunderground v.1.15,2013-01-29 16:39:00,
2013-01-29 09:44:00,24.9,16.8,30.00,NW,325,3.0,5.0,71,0.00,,,0.00,Wunderground v.1.15,2013-01-29 16:44:00,
2013-01-29 09:50:00,25.2,17.1,30.00,NNW,329,4.0,4.0,71,0.00,,,0.00,Wunderground v.1.15,2013-01-29 16:50:00,
2013-01-29 09:55:00,25.6,17.5,30.00,NW,319,3.0,4.0,71,0.00,,,0.00,Wunderground v.1.15,2013-01-29 16:55:00,
2013-01-29 10:00:00,25.7,17.9,30.00,NW,304,3.0,4.0,72,0.00,,,0.00,Wunderground v.1.15,2013-01-29 17:00:00,
2013-01-29 10:05:00,25.7,17.6,30.01,West,280,3.0,4.0,71,0.00,,,0.00,Wunderground v.1.15,2013-01-29 17:05:00,
2013-01-29 10:15:00,26.1,18.0,30.01,WNW,284,3.0,4.0,71,0.00,,,0.00,Wunderground v.1.15,2013-01-29 17:15:00,
2013-01-29 10:25:00,26.5,17.7,30.01,NNW,331,3.0,4.0,69,0.00,,,0.00,Wunderground v.1.15,2013-01-29 17:25:00,
2013-01-29 10:30:00,26.8,18.0,30.01,NNW,330,3.0,3.0,69,0.00,,,0.00,Wunderground v.1.15,2013-01-29 17:30:00,
2013-01-29 10:35:00,26.7,17.6,30.01,NNW,329,2.0,3.0,68,0.00,,,0.00,Wunderground v.1.15,2013-01-29 17:35:00,
2013-01-29 10:40:00,26.7,17.9,30.01,West,277,2.0,2.0,69,0.00,,,0.00,Wunderground v.1.15,2013-01-29 17:40:00,
2013-01-29 10:44:00,26.6,17.1,30.01,West,277,2.0,2.0,67,0.00,,,0.00,Wunderground v.1.15,2013-01-29 17:44:00,
2013-01-29 10:49:00,26.3,17.2,30.02,WNW,288,2.0,2.0,68,0.00,,,0.00,Wunderground v.1.15,2013-01-29 17:49:00,
2013-01-29 10:59:00,27.4,17.9,30.01,NNE,22,1.0,5.0,67,0.00,,,0.00,Wunderground v.1.15,2013-01-29 17:59:00,
2013-01-29 11:05:00,27.8,18.6,30.01,North,5,2.0,5.0,68,0.00,,,0.00,Wunderground v.1.15,2013-01-29 18:05:00,
2013-01-29 11:14:00,28.9,18.6,30.00,NNW,347,3.0,4.0,65,0.00,,,0.00,Wunderground v.1.15,2013-01-29 18:14:00,
2013-01-29 11:19:00,29.4,19.1,30.00,North,349,3.0,3.0,65,0.00,,,0.00,Wunderground v.1.15,2013-01-29 18:19:00,
2013-01-29 11:25:00,29.6,18.5,30.00,North,5,3.0,5.0,63,0.00,,,0.00,Wunderground v.1.15,2013-01-29 18:25:00,
2013-01-29 11:30:00,29.7,19.0,30.00,North,360,2.0,3.0,64,0.00,,,0.00,Wunderground v.1.15,2013-01-29 18:30:00,
2013-01-29 11:35:00,29.9,18.8,30.00,NW,315,2.0,3.0,63,0.00,,,0.00,Wunderground v.1.15,2013-01-29 18:35:00,
2013-01-29 11:40:00,30.2,19.1,30.00,NW,313,3.0,3.0,63,0.00,,,0.00,Wunderground v.1.15,2013-01-29 18:40:00,
2013-01-29 11:45:00,30.6,19.9,29.98,NW,313,3.0,3.0,64,0.00,,,0.00,Wunderground v.1.15,2013-01-29 18:45:00,
2013-01-29 11:50:00,31.3,20.2,29.98,NNW,337,3.0,3.0,63,0.00,,,0.00,Wunderground v.1.15,2013-01-29 18:50:00,
2013-01-29 11:59:00,31.5,20.3,29.98,NW,310,4.0,6.0,63,0.00,,,0.00,Wunderground v.1.15,2013-01-29 18:59:00,
2013-01-29 12:05:00,31.4,20.2,29.99,WNW,286,3.0,6.0,63,0.00,,,0.00,Wunderground v.1.15,2013-01-29 19:05:00,
2013-01-29 12:14:00,30.9,19.0,29.99,WNW,296,3.0,3.0,61,0.00,,,0.00,Wunderground v.1.15,2013-01-29 19:14:00,
2013-01-29 12:19:00,30.1,19.4,29.99,NNW,338,4.0,4.0,64,0.00,,,0.00,Wunderground v.1.15,2013-01-29 19:19:00,
2013-01-29 12:24:00,30.0,19.3,29.99,NW,315,4.0,4.0,64,0.00,,,0.00,Wunderground v.1.15,2013-01-29 19:24:00,
2013-01-29 12:34:00,30.7,19.6,29.98,North,355,3.0,4.0,63,0.00,,,0.00,Wunderground v.1.15,2013-01-29 19:34:00,
2013-01-29 12:39:00,31.4,20.2,29.97,North,350,2.0,2.0,63,0.00,,,0.00,Wunderground v.1.15,2013-01-29 19:39:00,
2013-01-29 12:45:00,31.8,19.5,29.97,NNW,339,2.0,4.0,60,0.00,,,0.00,Wunderground v.1.15,2013-01-29 19:45:00,
2013-01-29 12:54:00,32.1,19.8,29.97,NW,317,4.0,6.0,60,0.00,,,0.00,Wunderground v.1.15,2013-01-29 19:54:00,
2013-01-29 13:00:00,32.4,20.0,29.97,WNW,302,3.0,4.0,60,0.00,,,0.00,Wunderground v.1.15,2013-01-29 20:00:00,
2013-01-29 13:09:00,33.3,19.7,29.95,NW,307,3.0,4.0,57,0.00,,,0.00,Wunderground v.1.15,2013-01-29 20:09:00,
2013-01-29 13:14:00,33.3,19.7,29.95,NW,317,3.0,4.0,57,0.00,,,0.00,Wunderground v.1.15,2013-01-29 20:14:00,
2013-01-29 13:19:00,33.6,20.0,29.95,NNW,344,3.0,3.0,57,0.00,,,0.00,Wunderground v.1.15,2013-01-29 20:19:00,
2013-01-29 13:24:00,33.8,19.7,29.96,NNW,329,4.0,4.0,56,0.00,,,0.00,Wunderground v.1.15,2013-01-29 20:24:00,
2013-01-29 13:29:00,33.9,19.8,29.95,NNE,18,3.0,3.0,56,0.00,,,0.00,Wunderground v.1.15,2013-01-29 20:29:00,
2013-01-29 13:35:00,33.9,19.8,29.95,North,355,3.0,3.0,56,0.00,,,0.00,Wunderground v.1.15,2013-01-29 20:35:00,
2013-01-29 13:40:00,33.8,19.7,29.95,NNW,346,3.0,4.0,56,0.00,,,0.00,Wunderground v.1.15,2013-01-29 20:40:00,
2013-01-29 13:45:00,33.7,19.7,29.95,NW,307,3.0,4.0,56,0.00,,,0.00,Wunderground v.1.15,2013-01-29 20:45:00,
2013-01-29 13:50:00,33.9,19.8,29.95,NNW,342,3.0,3.0,56,0.00,,,0.00,Wunderground v.1.15,2013-01-29 20:50:00,
2013-01-29 13:55:00,33.9,19.4,29.95,NW,306,3.0,5.0,55,0.00,,,0.00,Wunderground v.1.15,2013-01-29 20:55:00,
2013-01-29 14:00:00,33.9,19.8,29.95,NNW,338,3.0,4.0,56,0.00,,,0.00,Wunderground v.1.15,2013-01-29 21:00:00,
2013-01-29 14:05:00,34.0,19.5,29.95,NNW,342,3.0,4.0,55,0.00,,,0.00,Wunderground v.1.15,2013-01-29 21:05:00,
2013-01-29 14:15:00,34.1,19.6,29.95,NNE,13,3.0,4.0,55,0.00,,,0.00,Wunderground v.1.15,2013-01-29 21:15:00,
2013-01-29 14:20:00,33.9,19.0,29.95,NE,42,3.0,5.0,54,0.00,,,0.00,Wunderground v.1.15,2013-01-29 21:20:00,
2013-01-29 14:25:00,33.8,19.3,29.94,NNE,22,3.0,5.0,55,0.00,,,0.00,Wunderground v.1.15,2013-01-29 21:25:00,
2013-01-29 14:30:00,34.0,19.5,29.95,NNW,340,2.0,2.0,55,0.00,,,0.00,Wunderground v.1.15,2013-01-29 21:30:00,
2013-01-29 14:39:00,34.0,19.1,29.95,NNE,13,3.0,4.0,54,0.00,,,0.00,Wunderground v.1.15,2013-01-29 21:39:00,
2013-01-29 14:44:00,33.9,19.8,29.94,WNW,292,3.0,4.0,56,0.00,,,0.00,Wunderground v.1.15,2013-01-29 21:44:00,
2013-01-29 14:49:00,33.9,19.4,29.95,WNW,285,3.0,3.0,55,0.00,,,0.00,Wunderground v.1.15,2013-01-29 21:49:00,
2013-01-29 14:54:00,33.8,18.5,29.95,West,274,4.0,4.0,53,0.00,,,0.00,Wunderground v.1.15,2013-01-29 21:54:00,
2013-01-29 14:59:00,33.2,17.5,29.96,WNW,287,5.0,6.0,52,0.00,,,0.00,Wunderground v.1.15,2013-01-29 21:59:00,
2013-01-29 15:05:00,32.6,18.6,29.98,NW,306,6.0,6.0,56,0.00,,,0.00,Wunderground v.1.15,2013-01-29 22:05:00,
2013-01-29 15:15:00,31.9,16.2,29.98,NW,323,7.0,9.0,52,0.00,,,0.00,Wunderground v.1.15,2013-01-29 22:15:00,
2013-01-29 15:20:00,31.6,16.4,29.98,West,277,7.0,7.0,53,0.00,,,0.00,Wunderground v.1.15,2013-01-29 22:20:00,
2013-01-29 15:30:00,31.4,17.5,30.00,NW,310,6.0,10.0,56,0.00,,,0.00,Wunderground v.1.15,2013-01-29 22:30:00,
2013-01-29 15:35:00,31.2,18.1,30.00,NW,319,7.0,10.0,58,0.00,,,0.00,Wunderground v.1.15,2013-01-29 22:35:00,
2013-01-29 15:45:00,30.4,18.2,30.01,NW,322,7.0,10.0,60,0.00,,,0.00,Wunderground v.1.15,2013-01-29 22:45:00,
2013-01-29 15:50:00,30.0,17.8,30.01,NNW,327,7.0,11.0,60,0.00,,,0.00,Wunderground v.1.15,2013-01-29 22:50:00,
2013-01-29 15:54:00,29.7,17.9,30.01,NNW,331,7.0,11.0,61,0.00,,,0.00,Wunderground v.1.15,2013-01-29 22:54:00,
2013-01-29 15:59:00,29.5,18.1,30.02,NW,319,7.0,7.0,62,0.00,,,0.00,Wunderground v.1.15,2013-01-29 22:59:00,
2013-01-29 16:05:00,29.4,18.3,30.04,North,355,6.0,7.0,63,0.00,,,0.00,Wunderground v.1.15,2013-01-29 23:05:00,
2013-01-29 16:14:00,29.2,17.8,30.05,WNW,296,7.0,8.0,62,0.00,,,0.00,Wunderground v.1.15,2013-01-29 23:14:00,
2013-01-29 16:25:00,28.8,17.4,30.06,NNW,346,7.0,11.0,62,0.00,,,0.00,Wunderground v.1.15,2013-01-29 23:25:00,
2013-01-29 16:30:00,28.8,17.8,30.06,NW,307,7.0,7.0,63,0.00,,,0.00,Wunderground v.1.15,2013-01-29 23:30:00,
2013-01-29 16:35:00,28.7,17.7,30.06,NW,309,6.0,9.0,63,0.00,,,0.00,Wunderground v.1.15,2013-01-29 23:35:00,
2013-01-29 16:45:00,28.5,17.5,30.07,WNW,295,6.0,7.0,63,0.00,,,0.00,Wunderground v.1.15,2013-01-29 23:45:00,
2013-01-29 16:50:00,28.5,17.1,30.07,NW,307,6.0,6.0,62,0.00,,,0.00,Wunderground v.1.15,2013-01-29 23:50:00,
2013-01-29 16:55:00,28.6,17.6,30.07,NW,325,5.0,6.0,63,0.00,,,0.00,Wunderground v.1.15,2013-01-29 23:55:00,
2013-01-29 17:00:00,28.5,17.1,30.08,NW,321,4.0,6.0,62,0.00,,,0.00,Wunderground v.1.15,2013-01-30 00:00:00,
2013-01-29 17:05:00,28.5,17.1,30.09,NW,314,5.0,6.0,62,0.00,,,0.00,Wunderground v.1.15,2013-01-30 00:05:00,
2013-01-29 17:15:00,28.4,17.4,30.11,WNW,292,3.0,5.0,63,0.00,,,0.00,Wunderground v.1.15,2013-01-30 00:15:00,
2013-01-29 17:20:00,28.3,17.3,30.11,NW,312,2.0,4.0,63,0.00,,,0.00,Wunderground v.1.15,2013-01-30 00:20:00,
2013-01-29 17:25:00,28.1,17.5,30.11,WNW,300,2.0,4.0,64,0.00,,,0.00,Wunderground v.1.15,2013-01-30 00:25:00,
2013-01-29 17:35:00,27.7,16.7,30.12,NW,322,4.0,4.0,63,0.00,,,0.00,Wunderground v.1.15,2013-01-30 00:35:00,
2013-01-29 17:40:00,27.5,16.9,30.13,NW,326,3.0,3.0,64,0.00,,,0.00,Wunderground v.1.15,2013-01-30 00:40:00,
2013-01-29 17:49:00,27.0,17.1,30.13,NNW,330,2.0,2.0,66,0.00,,,0.00,Wunderground v.1.15,2013-01-30 00:49:00,
2013-01-29 17:54:00,26.7,17.2,30.13,NNW,330,1.0,2.0,67,0.00,,,0.00,Wunderground v.1.15,2013-01-30 00:54:00,
2013-01-29 17:59:00,26.4,17.6,30.13,NNW,336,1.0,2.0,69,0.00,,,0.00,Wunderground v.1.15,2013-01-30 00:59:00,
2013-01-29 18:05:00,26.0,17.6,30.16,North,355,2.0,5.0,70,0.00,,,0.00,Wunderground v.1.15,2013-01-30 01:05:00,
2013-01-29 18:14:00,25.2,17.4,30.17,North,5,2.0,4.0,72,0.00,,,0.00,Wunderground v.1.15,2013-01-30 01:14:00,
2013-01-29 18:20:00,24.9,17.5,30.18,North,355,2.0,2.0,73,0.00,,,0.00,Wunderground v.1.15,2013-01-30 01:20:00,
2013-01-29 18:25:00,24.7,17.3,30.18,North,11,2.0,2.0,73,0.00,,,0.00,Wunderground v.1.15,2013-01-30 01:25:00,
2013-01-29 18:30:00,24.5,17.4,30.18,NNE,13,2.0,2.0,74,0.00,,,0.00,Wunderground v.1.15,2013-01-30 01:30:00,
2013-01-29 18:35:00,24.3,17.2,30.18,North,10,2.0,2.0,74,0.00,,,0.00,Wunderground v.1.15,2013-01-30 01:35:00,
2013-01-29 18:45:00,24.0,17.5,30.18,NW,313,2.0,2.0,76,0.00,,,0.00,Wunderground v.1.15,2013-01-30 01:45:00,
2013-01-29 18:54:00,23.6,17.1,30.18,NW,315,1.0,1.0,76,0.00,,,0.00,Wunderground v.1.15,2013-01-30 01:54:00,
2013-01-29 18:59:00,23.4,17.3,30.19,NW,316,1.0,1.0,77,0.00,,,0.00,Wunderground v.1.15,2013-01-30 01:59:00,
2013-01-29 19:05:00,23.3,17.2,30.20,NW,316,0.0,1.0,77,0.00,,,0.00,Wunderground v.1.15,2013-01-30 02:05:00,
2013-01-29 19:14:00,22.6,16.8,30.20,NW,316,0.0,0.0,78,0.00,,,0.00,Wunderground v.1.15,2013-01-30 02:14:00,
2013-01-29 19:20:00,22.4,16.6,30.20,NW,316,0.0,0.0,78,0.00,,,0.00,Wunderground v.1.15,2013-01-30 02:20:00,
2013-01-29 19:25:00,22.3,16.8,30.20,NW,316,0.0,2.0,79,0.00,,,0.00,Wunderground v.1.15,2013-01-30 02:25:00,
2013-01-29 19:30:00,22.3,16.8,30.21,NNW,334,1.0,1.0,79,0.00,,,0.00,Wunderground v.1.15,2013-01-30 02:30:00,
2013-01-29 19:35:00,22.2,16.7,30.21,NNW,335,1.0,1.0,79,0.00,,,0.00,Wunderground v.1.15,2013-01-30 02:35:00,
2013-01-29 19:45:00,21.9,16.4,30.22,NNW,335,0.0,0.0,79,0.00,,,0.00,Wunderground v.1.15,2013-01-30 02:45:00,
2013-01-29 19:54:00,21.3,15.8,30.23,NNW,335,0.0,0.0,79,0.00,,,0.00,Wunderground v.1.15,2013-01-30 02:54:00,
2013-01-29 19:59:00,20.9,15.4,30.24,NNW,335,0.0,1.0,79,0.00,,,0.00,Wunderground v.1.15,2013-01-30 02:59:00,
2013-01-29 20:05:00,20.8,15.6,30.22,NNW,334,1.0,1.0,80,0.00,,,0.00,Wunderground v.1.15,2013-01-30 03:05:00,
2013-01-29 20:14:00,20.8,15.9,30.22,NNW,335,2.0,3.0,81,0.00,,,0.00,Wunderground v.1.15,2013-01-30 03:14:00,
2013-01-29 20:19:00,20.9,16.0,30.22,NNW,335,2.0,2.0,81,0.00,,,0.00,Wunderground v.1.15,2013-01-30 03:19:00,
2013-01-29 20:29:00,20.9,16.0,30.23,NNW,335,0.0,0.0,81,0.00,,,0.00,Wunderground v.1.15,2013-01-30 03:29:00,
2013-01-29 20:34:00,21.0,16.1,30.23,NNW,334,0.0,0.0,81,0.00,,,0.00,Wunderground v.1.15,2013-01-30 03:34:00,
2013-01-29 20:40:00,21.0,16.1,30.23,NNW,334,0.0,0.0,81,0.00,,,0.00,Wunderground v.1.15,2013-01-30 03:40:00,
2013-01-29 20:45:00,20.7,15.8,30.24,NNW,334,1.0,3.0,81,0.00,,,0.00,Wunderground v.1.15,2013-01-30 03:45:00,
2013-01-29 20:50:00,20.7,16.1,30.24,NNW,335,3.0,3.0,82,0.00,,,0.00,Wunderground v.1.15,2013-01-30 03:50:00,
2013-01-29 21:00:00,20.8,16.2,30.24,NNW,334,3.0,4.0,82,0.00,,,0.00,Wunderground v.1.15,2013-01-30 04:00:00,
2013-01-29 21:05:00,20.7,16.1,30.22,NNW,335,3.0,4.0,82,0.00,,,0.00,Wunderground v.1.15,2013-01-30 04:05:00,
2013-01-29 21:15:00,20.5,15.9,30.22,NNW,334,2.0,3.0,82,0.00,,,0.00,Wunderground v.1.15,2013-01-30 04:15:00,
2013-01-29 21:20:00,20.5,15.9,30.22,NNW,334,2.0,3.0,82,0.00,,,0.00,Wunderground v.1.15,2013-01-30 04:20:00,
2013-01-29 21:29:00,20.4,15.8,30.23,NNW,334,1.0,1.0,82,0.00,,,0.00,Wunderground v.1.15,2013-01-30 04:29:00,
2013-01-29 21:34:00,20.4,16.1,30.23,NNW,335,0.0,1.0,83,0.00,,,0.00,Wunderground v.1.15,2013-01-30 04:34:00,
2013-01-29 21:39:00,20.5,16.2,30.23,NNW,335,1.0,2.0,83,0.00,,,0.00,Wunderground v.1.15,2013-01-30 04:39:00,
2013-01-29 21:44:00,20.7,16.4,30.23,NNW,334,2.0,2.0,83,0.00,,,0.00,Wunderground v.1.15,2013-01-30 04:44:00,
2013-01-29 21:49:00,20.9,16.5,30.23,NNW,335,1.0,1.0,83,0.00,,,0.00,Wunderground v.1.15,2013-01-30 04:49:00,
2013-01-29 21:54:00,20.9,16.5,30.23,NNW,334,0.0,1.0,83,0.00,,,0.00,Wunderground v.1.15,2013-01-30 04:54:00,
2013-01-29 22:05:00,20.9,16.5,30.23,NNW,334,0.0,0.0,83,0.00,,,0.00,Wunderground v.1.15,2013-01-30 05:05:00,
2013-01-29 22:15:00,20.6,16.3,30.23,NNW,335,0.0,0.0,83,0.00,,,0.00,Wunderground v.1.15,2013-01-30 05:15:00,
2013-01-29 22:20:00,20.5,16.2,30.23,NNW,334,0.0,0.0,83,0.00,,,0.00,Wunderground v.1.15,2013-01-30 05:20:00,
2013-01-29 22:25:00,20.5,16.2,30.23,NNW,335,0.0,0.0,83,0.00,,,0.00,Wunderground v.1.15,2013-01-30 05:25:00,
2013-01-29 22:30:00,20.4,16.1,30.24,NNW,335,0.0,0.0,83,0.00,,,0.00,Wunderground v.1.15,2013-01-30 05:30:00,
2013-01-29 22:35:00,20.4,16.1,30.24,NNW,335,0.0,0.0,83,0.00,,,0.00,Wunderground v.1.15,2013-01-30 05:35:00,
2013-01-29 22:40:00,20.4,16.1,30.24,NNW,334,0.0,0.0,83,0.00,,,0.00,Wunderground v.1.15,2013-01-30 05:40:00,
2013-01-29 22:50:00,20.3,16.0,30.24,NNW,335,0.0,0.0,83,0.00,,,0.00,Wunderground v.1.15,2013-01-30 05:50:00,
2013-01-29 22:59:00,20.3,16.0,30.24,NNW,335,0.0,2.0,83,0.00,,,0.00,Wunderground v.1.15,2013-01-30 05:59:00,
2013-01-29 23:05:00,20.0,15.7,30.24,NNW,335,1.0,2.0,83,0.00,,,0.00,Wunderground v.1.15,2013-01-30 06:05:00,
2013-01-29 23:15:00,19.5,15.2,30.24,NNW,334,1.0,2.0,83,0.00,,,0.00,Wunderground v.1.15,2013-01-30 06:15:00,
2013-01-29 23:20:00,19.3,14.7,30.24,NNW,334,1.0,1.0,82,0.00,,,0.00,Wunderground v.1.15,2013-01-30 06:20:00,
2013-01-29 23:25:00,19.2,14.9,30.24,NNW,335,1.0,1.0,83,0.00,,,0.00,Wunderground v.1.15,2013-01-30 06:25:00,
2013-01-29 23:30:00,19.0,14.7,30.24,NNW,335,0.0,0.0,83,0.00,,,0.00,Wunderground v.1.15,2013-01-30 06:30:00,
2013-01-29 23:35:00,18.9,14.6,30.25,NNW,335,0.0,1.0,83,0.00,,,0.00,Wunderground v.1.15,2013-01-30 06:35:00,
2013-01-29 23:40:00,18.7,14.4,30.25,NNW,335,0.0,0.0,83,0.00,,,0.00,Wunderground v.1.15,2013-01-30 06:40:00,
2013-01-29 23:45:00,18.5,13.9,30.25,NNW,334,0.0,0.0,82,0.00,,,0.00,Wunderground v.1.15,2013-01-30 06:45:00,
2013-01-29 23:50:00,18.4,13.8,30.26,NNW,335,0.0,0.0,82,0.00,,,0.00,Wunderground v.1.15,2013-01-30 06:50:00,
2013-01-29 23:55:00,18.0,13.4,30.26,NNW,335,0.0,0.0,82,0.00,,,0.00,Wunderground v.1.15,2013-01-30 06:55:00,